This is the latest recevied weather packets stored in our database for station/object SV4FHR-2. If no packets are shown the sender has not sent any weather packets the latest 10 day(s).
| Time | Temp. | Humidity | Pressure | Rain* | Wind** | Luminosity | Snow |
|---|---|---|---|---|---|---|---|
| 1777755943 | 10° C | 81% | 1017.3 hPa | 0 mm | - | - | - |
| 1777755645 | 10° C | 80% | 1017.6 hPa | 0 mm | - | - | - |
| 1777755345 | 10° C | 79% | 1017.4 hPa | 0 mm | - | - | - |
| 1777755045 | 9.44° C | 78% | 1017.2 hPa | 0 mm | - | - | - |
| 1777754745 | 9.44° C | 80% | 1017.2 hPa | 0 mm | - | - | - |
| 1777754445 | 9.44° C | 80% | 1017 hPa | 0 mm | - | - | - |
| 1777754145 | 9.44° C | 80% | 1017.2 hPa | 0 mm | - | - | - |
| 1777753845 | 9.44° C | 80% | 1016.8 hPa | 0 mm | - | - | - |
| 1777753545 | 9.44° C | 78% | 1017 hPa | 0 mm | - | - | - |
| 1777753245 | 9.44° C | 79% | 1017.1 hPa | 0 mm | - | - | - |
| 1777752944 | 9.44° C | 81% | 1017.1 hPa | 0 mm | - | - | - |
| 1777752644 | 9.44° C | 82% | 1017.1 hPa | 0 mm | - | - | - |
| 1777752344 | 9.44° C | 82% | 1017.3 hPa | 0 mm | - | - | - |
| 1777752044 | 9.44° C | 81% | 1017.2 hPa | 0 mm | - | - | - |
| 1777751744 | 10° C | 80% | 1017.1 hPa | 0 mm | - | - | - |
| 1777751444 | 10° C | 78% | 1017.2 hPa | 0 mm | - | - | - |
| 1777751144 | 10° C | 77% | 1017.3 hPa | 0 mm | - | - | - |
| 1777750844 | 10.56° C | 76% | 1017.2 hPa | 0 mm | - | - | - |
| 1777750543 | 10° C | 76% | 1017.2 hPa | 0 mm | - | - | - |
| 1777750243 | 10.56° C | 76% | 1017.4 hPa | 0 mm | - | - | - |
| 1777749943 | 10.56° C | 75% | 1017.3 hPa | 0 mm | - | - | - |
| 1777749643 | 10° C | 76% | 1017.3 hPa | 0 mm | - | - | - |
| 1777749345 | 10° C | 76% | 1017 hPa | 0 mm | - | - | - |
| 1777749045 | 10.56° C | 76% | 1017.3 hPa | 0 mm | - | - | - |
| 1777748745 | 10.56° C | 73% | 1017.6 hPa | 0 mm | - | - | - |
* Rain latest hour (hover to see other rain measurements)
** Current wind speed in m/s (hover to see current wind gust speed)